{"data":{"norad_id":45428,"intl_designator":"2020-020E","name":"ONEWEB-0061","alt_names":[],"object_type":"PAYLOAD","status":"ACTIVE","operator":null,"country":"UK","launch_date":"2020-03-21","launch_site_code":"TYMSC","launch_vehicle":null,"mission":null,"orbit_class":"UNKNOWN","rcs_meters":null,"size_class":null,"mass_kg":null,"dimensions":null,"purposes":["comms"],"wikipedia_slug":null,"has_3d_model":false,"image_url":null,"decayed_at":null,"tle_current":{"epoch":"2026-09-20T01:57:46.072800Z","epoch_age_seconds":54475,"freshness":"FRESH","line1":"1 45428U 20020E   26263.08178325 -.00000413  00000+0 -12017-2 0  9992","line2":"2 45428  87.8976   2.1970 0001777  99.9951 260.1378 13.11417157315066","mean_motion":13.11417157,"eccentricity":0.0001777,"inclination_deg":87.8976,"raan_deg":2.197,"arg_perigee_deg":99.9951,"mean_anomaly_deg":260.1378,"bstar":-0.0012017,"rev_number":31506,"period_min":109.80487728971,"perigee_km":1216.3321027462,"apogee_km":1219.0316567761,"semimajor_km":7595.8188797612,"source":"CELESTRAK","updated_at":"2026-09-20T09:00:44.552790Z"}}}